Вернуться в каталог

BREEZE-M DEB

АктивенHEO
NORAD 32025·DEBRIS·🇷🇺 Russia

Запущен Feb 28, 2006 с Baikonur Cosmodrome

Loading…

Ближайшие Пролёты (ближайшие 24 часа)

TLE

СвежийSource: Space-Track

Эпоха: Sep 14, 2026, 05:42 UTC

1 32025U 06006C   26257.23766815  .00000477  00000-0  59995-3 0  9992
2 32025  51.6567  77.3428 5099711  89.3690 326.2977  5.26930203374675

Отслеживайте BREEZE-M DEB в реальном времени с AllMySat

Download on the App Store